Weather History for Hot Springs, AR

Change the Weather History Date:

Tuesday, February 4, 2014

  Actual Average Record
Temperature  
Mean Temperature 31 °F -  
Max Temperature 34 °F 53 °F 73 °F (2008)
Min Temperature 28 °F 31 °F 10 °F (1985)
Degree Days  
Heating Degree Days 34    
Moisture  
Dew Point 29 °F    
Average Humidity 89    
Maximum Humidity 93    
Minimum Humidity 72    
Precipitation  
Precipitation 0.79 in - - ()
Sea Level Pressure  
Sea Level Pressure 30.02 in    
Wind  
Wind Speed 7 mph (ESE)    
Max Wind Speed 18 mph    
Max Gust Speed 25 mph    
Visibility 4 miles    
Events Rain , Thunderstorm    
Averages and records for this station are not official NWS values.
T = Trace of Precipitation, MM = Missing Value Source: NWS Daily Summary

Daily Weather History Graph

Daily Weather History Graph

Search for Another Location

Airport:

Trip Planner

Search our weather history database for the weather conditions in past years. The results will help you decide how hot, cold, wet, or windy it might be!

Date:

Astronomy

Feb. 04, 2014 Rise Set
Actual Time 7:07 AM CST 5:45 PM CST
Civil Twilight 6:41 AM CST 6:11 PM CST
Nautical Twilight 6:11 AM CST 6:41 PM CST
Astronomical Twilight 5:42 AM CST 7:10 PM CST
Moon 10:01 AM CST (2/4) 11:22 PM CST (2/4)
Length of Visible Light 11h 29m
Length of Day
10h 37m
Waxing Crescent, 29% of the Moon is Illuminated
Feb 4
Waxing Crescent
Feb 6
First Quarter
Feb 14
Full
Feb 22
Last Quarter
Mar 1
New

Hourly Weather History & Observations

Time (CST) Temp. Windchill Dew Point Humidity Pressure Visibility Wind Dir Wind Speed Gust Speed Precip Events Conditions
12:53 AM 28.9 °F 19.2 °F 21.0 °F 72% 30.12 in 10.0 mi ENE 11.5 mph - N/A   Clear
1:53 AM 28.0 °F 19.3 °F 21.0 °F 75% 30.13 in 10.0 mi ESE 9.2 mph 17.3 mph N/A   Scattered Clouds
2:00 AM 28.4 °F 21.2 °F 21.2 °F 74% 30.12 in 10.0 mi East 6.9 mph - N/A   Mostly Cloudy
2:53 AM 28.0 °F 20.8 °F 23.0 °F 81% 30.15 in 10.0 mi East 6.9 mph - N/A   Overcast
3:41 AM 28.4 °F 22.2 °F 24.8 °F 86% 30.11 in 9.0 mi ENE 5.8 mph - N/A   Overcast
3:53 AM 28.0 °F 19.3 °F 24.1 °F 85% 30.09 in 8.0 mi ENE 9.2 mph - N/A   Overcast
4:53 AM 28.0 °F 16.1 °F 24.1 °F 85% 30.04 in 6.0 mi East 16.1 mph 21.9 mph N/A   Overcast
5:44 AM 28.4 °F 23.3 °F 24.8 °F 86% 30.12 in 4.0 mi NE 4.6 mph - 0.01 in Rain Light Freezing Rain
5:50 AM 28.4 °F 20.4 °F 24.8 °F 86% 30.08 in 2.5 mi NE 8.1 mph - 0.03 in Rain Light Freezing Rain
5:51 AM 28.9 °F 20.4 °F 25.0 °F 85% 30.09 in 2.5 mi ENE 9.2 mph - 0.03 in Rain Light Freezing Rain
6:03 AM 28.4 °F 20.4 °F 26.6 °F 93% 30.08 in 4.0 mi ENE 8.1 mph - 0.02 in Rain Light Freezing Rain
6:43 AM 28.4 °F 23.3 °F 26.6 °F 93% 30.06 in 8.0 mi East 4.6 mph - 0.02 in   Overcast
6:53 AM 28.9 °F 25.2 °F 26.1 °F 89% 30.11 in 7.0 mi WNW 3.5 mph - 0.02 in   Overcast
7:00 AM 28.4 °F 24.6 °F 26.6 °F 93% 30.08 in 7.0 mi NE 3.5 mph - 0.00 in Rain Light Freezing Rain
7:09 AM 30.2 °F 25.4 °F 26.6 °F 86% 30.08 in 3.0 mi Variable 4.6 mph - 0.03 in Rain Light Freezing Rain
7:12 AM 30.2 °F 26.7 °F 26.6 °F 86% 30.07 in 2.5 mi Variable 3.5 mph - 0.04 in Rain Light Freezing Rain
7:21 AM 30.2 °F 23.4 °F 26.6 °F 86% 30.06 in 2.5 mi ENE 6.9 mph - 0.08 in Rain Light Freezing Rain
7:24 AM 30.2 °F 24.3 °F 26.6 °F 86% 30.08 in 3.0 mi ENE 5.8 mph - 0.08 in Rain Light Freezing Rain
7:26 AM 30.2 °F 24.3 °F 26.6 °F 86% 30.08 in 4.0 mi ENE 5.8 mph - 0.08 in Rain Light Freezing Rain
7:31 AM 30.2 °F 23.4 °F 26.6 °F 86% 30.07 in 3.0 mi East 6.9 mph - 0.11 in Rain Light Freezing Rain
7:43 AM 30.2 °F 21.3 °F 26.6 °F 86% 30.06 in 3.0 mi East 10.4 mph - 0.14 in Rain Light Freezing Rain
7:53 AM 30.0 °F 21.1 °F 27.0 °F 88% 30.06 in 2.0 mi East 10.4 mph - 0.17 in Rain Light Freezing Rain
8:02 AM 30.2 °F 19.3 °F 28.4 °F 93% 30.02 in 1.8 mi ESE 15.0 mph 20.7 mph 0.03 in Rain , Thunderstorm Light Freezing Rain
8:08 AM 30.2 °F 18.1 °F 28.4 °F 93% 30.00 in 2.0 mi ESE 18.4 mph 25.3 mph 0.04 in Rain , Thunderstorm Light Freezing Rain
8:13 AM 30.2 °F 23.4 °F 28.4 °F 93% 30.02 in 2.5 mi Variable 6.9 mph 25.3 mph 0.05 in Rain , Thunderstorm Light Freezing Rain
8:20 AM 30.2 °F 26.7 °F 28.4 °F 93% 30.04 in 1.8 mi Variable 3.5 mph - 0.09 in Rain , Thunderstorm Light Freezing Rain
8:27 AM 30.2 °F 26.7 °F 28.4 °F 93% 30.04 in 1.5 mi East 3.5 mph - 0.12 in Rain , Thunderstorm Light Freezing Rain
8:33 AM 30.2 °F 21.3 °F 28.4 °F 93% 30.04 in 2.0 mi East 10.4 mph - 0.13 in Rain Light Freezing Rain
8:46 AM 30.2 °F 20.8 °F 28.4 °F 93% 30.02 in 3.0 mi East 11.5 mph - 0.16 in Rain Light Freezing Rain
8:53 AM 30.9 °F 22.2 °F 28.9 °F 92% 30.02 in 2.5 mi East 10.4 mph - 0.18 in Rain Light Freezing Rain
9:12 AM 32.0 °F 27.5 °F 30.2 °F 93% 30.02 in 3.0 mi ESE 4.6 mph - 0.03 in Rain Light Freezing Rain
9:27 AM 32.0 °F 27.5 °F 30.2 °F 93% 30.02 in 2.0 mi ESE 4.6 mph - 0.06 in Rain Light Freezing Rain
9:53 AM 32.0 °F 25.6 °F 30.0 °F 92% 30.05 in 2.5 mi SSE 6.9 mph - 0.12 in Rain Light Freezing Rain
9:56 AM 32.0 °F 26.4 °F 30.2 °F 93% 30.03 in 3.0 mi ESE 5.8 mph - 0.00 in Rain Light Freezing Rain
10:06 AM 32.0 °F 27.5 °F 30.2 °F 93% 30.02 in 3.0 mi SE 4.6 mph - 0.01 in Rain Light Freezing Rain
10:16 AM 32.0 °F 28.7 °F 30.2 °F 93% 30.04 in 2.5 mi SSE 3.5 mph - 0.02 in Rain Light Freezing Rain
10:28 AM 32.0 °F 27.5 °F 30.2 °F 93% 30.01 in 1.8 mi East 4.6 mph - 0.07 in Rain Light Freezing Rain
10:32 AM 32.0 °F 27.5 °F 30.2 °F 93% 30.00 in 2.0 mi East 4.6 mph - 0.08 in Rain Light Freezing Rain
10:37 AM 32.0 °F 28.7 °F 30.2 °F 93% 30.00 in 2.0 mi East 3.5 mph - 0.10 in   Overcast
10:45 AM 32.0 °F 27.5 °F 30.2 °F 93% 30.01 in 2.0 mi ESE 4.6 mph - 0.10 in Rain Light Freezing Rain
10:53 AM 32.0 °F 27.5 °F 30.0 °F 92% 30.03 in 3.0 mi SE 4.6 mph - 0.10 in Rain Light Freezing Rain
10:56 AM 32.0 °F 27.5 °F 30.2 °F 93% 30.01 in 2.5 mi ESE 4.6 mph - 0.00 in Rain Light Freezing Rain
11:01 AM 32.0 °F 27.5 °F 30.2 °F 93% 30.00 in 1.8 mi East 4.6 mph - 0.01 in Rain Light Freezing Rain
11:08 AM 32.0 °F 27.5 °F 30.2 °F 93% 29.99 in 2.0 mi East 4.6 mph - 0.02 in   Overcast
11:17 AM 32.0 °F 26.4 °F 30.2 °F 93% 29.99 in 3.0 mi East 5.8 mph - 0.02 in Rain Light Freezing Rain
11:20 AM 33.8 °F 29.6 °F 30.2 °F 87% 29.99 in 2.5 mi ESE 4.6 mph - 0.03 in Rain Light Freezing Rain
11:36 AM 33.8 °F 30.8 °F 30.2 °F 87% 29.99 in 3.0 mi SE 3.5 mph - 0.07 in Rain Light Freezing Rain
11:46 AM 33.8 °F 30.8 °F 30.2 °F 87% 29.98 in 3.0 mi ESE 3.5 mph - 0.08 in Rain Rain
11:53 AM 33.1 °F 28.7 °F 30.9 °F 92% 29.99 in 5.0 mi ESE 4.6 mph - 0.08 in Rain Light Rain
12:14 PM 33.8 °F 28.6 °F 30.2 °F 87% 29.95 in 2.5 mi East 5.8 mph - 0.00 in Rain Light Rain
12:25 PM 33.8 °F 28.6 °F 30.2 °F 87% 29.94 in 3.0 mi East 5.8 mph - 0.00 in Rain Light Rain
12:32 PM 33.8 °F 29.6 °F 30.2 °F 87% 29.94 in 2.5 mi ESE 4.6 mph - 0.01 in Rain Light Rain
12:46 PM 33.8 °F 28.6 °F 30.2 °F 87% 29.95 in 2.5 mi SE 5.8 mph - 0.02 in Rain Light Rain
12:53 PM 33.1 °F 26.9 °F 30.9 °F 92% 29.94 in 2.5 mi ESE 6.9 mph - 0.04 in Rain Rain
1:11 PM 33.8 °F - 30.2 °F 87% 29.92 in 4.0 mi Calm Calm - 0.03 in Rain Light Rain
1:22 PM 33.8 °F - 30.2 °F 87% 29.92 in 5.0 mi Calm Calm - 0.04 in Rain Rain
1:33 PM 33.8 °F 30.8 °F 30.2 °F 87% 29.91 in 6.0 mi East 3.5 mph - 0.04 in Rain Light Rain
1:44 PM 33.8 °F - 30.2 °F 87% 29.91 in 6.0 mi Calm Calm - 0.04 in Rain Light Rain
1:53 PM 33.1 °F 30.0 °F 30.9 °F 92% 29.92 in 6.0 mi ESE 3.5 mph - 0.04 in Rain Light Rain
2:53 PM 34.0 °F - 30.9 °F 89% 29.91 in 10.0 mi Calm Calm - 0.01 in   Overcast
3:53 PM 34.0 °F - 32.0 °F 92% 29.90 in 9.0 mi Calm Calm - N/A   Overcast
4:53 PM 34.0 °F - 32.0 °F 92% 29.91 in 10.0 mi Calm Calm - N/A   Overcast
5:53 PM 34.0 °F - 32.0 °F 92% 29.93 in 9.0 mi Calm Calm - N/A   Overcast
6:53 PM 34.0 °F - 32.0 °F 92% 29.95 in 8.0 mi Calm Calm - N/A   Overcast
7:53 PM 34.0 °F - 32.0 °F 92% 29.96 in 7.0 mi Calm Calm - N/A   Overcast
8:33 PM 33.8 °F 30.8 °F 32.0 °F 93% 29.96 in 6.0 mi WSW 3.5 mph - N/A   Overcast
8:53 PM 33.1 °F 28.7 °F 30.9 °F 92% 29.99 in 6.0 mi WSW 4.6 mph - N/A   Overcast
9:05 PM 33.8 °F 29.6 °F 32.0 °F 93% 29.99 in 5.0 mi West 4.6 mph - N/A   Overcast
9:15 PM 33.8 °F 29.6 °F 32.0 °F 93% 29.99 in 5.0 mi WSW 4.6 mph - N/A   Overcast
9:48 PM 33.8 °F - 32.0 °F 93% 29.99 in 2.5 mi Calm Calm - N/A   Overcast
9:53 PM 34.0 °F 31.0 °F 32.0 °F 92% 30.00 in 3.0 mi West 3.5 mph - N/A   Overcast
10:53 PM 34.0 °F 31.0 °F 32.0 °F 92% 30.02 in 4.0 mi West 3.5 mph - N/A   Overcast
11:53 PM 34.0 °F 29.8 °F 32.0 °F 92% 30.03 in 5.0 mi WSW 4.6 mph - N/A   Overcast